Location: North Evanston
(42.0634°N, 87.6976°W)
Time: 14:42:03
(UTC+00:00)

Vanguard 2 Rocket - Pass Details

Date: 15 May 2026
Orbit: 553 x 3286 km, 32.9° (Epoch: 6 June)

Event Time Altitude Azimuth Distance (km) Brightness Sun altitude
Rises 21:59:04 0° 278° (W) 6,829 12.4 32.5°
Reaches altitude 10° 22:03:43 10° 273° (W) 6,016 12.6 31.6°
Maximum altitude 22:21:15 42° 211° (SSW) 4,091 10.9 28.4°
Drops below altitude 10° 22:37:06 10° 148° (SSE) 5,436 10.6 25.5°
Sets 22:41:05 0° 141° (SE) 6,140 10.8 24.7°
